CAPE
0 0 0 0 0 0 0 0 0 0 0 0 0 0 0 0 0 0 0 0 0 0 0 0 0 0 0 0 0 0 0 0 0 0 0 0 0 0 0 0 0 0 0
0 0 0 0 0 0 0 0 0 0 0 0 0 0 0 0 0 0 0 0 0 0 0 0 0 0 0 0 0 0 0 0 0 0 0 0 0 0 0 0 0 0 0
0 0 0 0 0 0 0 0 0 0 0 0 0 0 0 0 0 0 0 0 0 0 0 0 0 0 0 0 0 0 0 0 0 0 0 0 0 0 0 0 0 0 0
0 0 0 0 0 0 0 0 0 0 0 0 0 0 0 0 0 0 0 0 0 0 0 0 0 0 0 0 0 0 0 0 0 0 0 0 0 0 0 0 0 0 0
0 0 0 0 0 0 0 0 0 0 0 0 0 0 0 0 0 0 0 0 0 0 0 0 0 0 0 0 0 0 0 0 0 0 0 0 0 0 0 0 0 0 0
0 0 0 0 0 0 0 0 0 0 0 0 0 0 0 0 0 0 0 0 0 0 0 0 0 0 0 0 0 0 0 0 0 0 0 0 0 0 0 0 0 0 0
0 0 0 0 0 0 0 0 0 0 0 0 0 0 0 0 0 0 0 0 0 0 0 0 0 0 0 0 0 0 0 0 0 0 0 0 0 0 0 0 0 0 0
0 0 0 0 0 0 0 0 0 0 0 0 0 0 0 0 0 0 0 0 0 0 0 0 0 0 0 0 0 0 0 0 0 0 0 0 0 0 0 0 0 0 0
0 0 0 0 0 0 0 0 0 0 0 0 0 0 0 0 0 0 0 0 0 0 0 0 0 0 0 0 0 0 0 0 0 0 0 0 0 0 0 0 0 0 0
0 0 0 0 0 0 0 0 0 0 0 0 0 0 0 0 0 0 0 0 0 0 0 0 0 0 0 0 0 0 0 0 0 0 0 0 0 0 0 0 0 0 0
0 0 0 0 0 0 0 0 0 0 0 0 0 0 0 0 0 0 0 0 0 0 0 0 0 0 0 0 0 0 0 0 0 0 0 0 0 0 0 0 0 0 0
0 0 0 0 0 0 0 0 0 0 0 0 0 0 0 0 0 0 0 0 0 0 0 0 0 0 0 0 0 0 0 0 0 0 0 0 0 0 0 0 0 0 0
0 0 0 0 0 0 0 0 0 0 0 0 0 0 0 0 0 0 0 0 0 0 0 0 0 0 0 0 0 0 0 0 0 0 0 0 0 0 0 0 0 0 0
0 0 0 0 0 0 0 0 0 0 0 0 0 0 0 0 0 0 0 0 0 0 0 0 0 0 0 0 0 0 0 0 0 0 0 0 0 0 0 0 0 0 0
0 0 0 0 0 0 0 0 0 0 0 0 0 0 0 0 0 0 0 0 0 0 0 0 0 0 0 0 0 0 0 0 0 0 0 0 0 0 0 0 0 0 0
0 0 0 0 0 0 0 0 0 0 0 0 0 0 0 0 0 0 0 0 0 0 0 0 0 0 0 0 0 0 0 0 0 0 0 0 0 0 0 0 0 0 0
0 0 0 0 0 0 0 0 0 0 0 0 0 0 0 0 0 0 0 0 0 0 0 0 0 0 0 0 0 0 0 0 0 0 0 0 0 0 0 0 0 0 0
0 0 0 0 0 0 0 0 0 0 0 0 0 0 0 0 0 0 0 0 0 0 0 0 0 0 0 0 0 0 0 0 0 0 0 0 0 0 0 0 0 0 0
0 0 0 0 0 0 0 0 0 0 0 0 0 0 0 0 0 0 0 0 0 0 0 0 0 0 0 0 0 0 0 0 0 0 0 0 0 0 0 0 0 0 0
0 0 0 0 0 0 0 0 0 0 0 0 0 0 0 0 0 0 0 0 0 0 0 0 0 0 0 0 0 0 0 0 0 0 0 0 0 0 0 0 0 0 0
0 0 0 0 0 0 0 0 0 0 0 0 0 0 0 0 0 0 0 0 0 0 0 0 0 0 0 0 0 0 0 0 0 0 0 0 0 0 0 0 0 0 1
0 0 0 0 0 0 0 0 0 0 0 0 0 0 0 0 0 0 0 0 0 0 0 0 0 0 0 0 0 0 0 0 0 0 0 0 0 0 0 0 0 5 3
0 0 0 0 0 0 0 0 0 0 0 0 0 0 0 0 0 0 0 0 0 0 0 0 0 0 0 0 0 0 0 0 0 0 0 0 0 0 0 0 2 0 0
0 0 0 0 0 0 0 0 0 0 0 0 0 0 0 0 0 0 0 0 0 0 0 0 0 0 0 0 0 0 0 0 0 0 0 0 0 0 0 0 0 0 0
0 0 0 0 0 0 0 0 0 0 0 0 0 0 0 0 0 0 0 0 0 0 0 0 0 0 0 0 0 0 0 0 0 0 0 0 0 0 0 0 0 0 0
0 0 0 0 0 0 0 0 0 0 0 0 0 0 0 0 0 0 0 0 0 0 0 0 0 0 0 0 0 0 0 0 0 0 0 0 0 0 0 0 0 0 0
CIN
-0 -0 -0 -0 -0 -0 -0 -0 -0 -0 -0 -0 -0 -0 -0 -0 -0 -0 -0 -0 -0 -0 -0 -0 -0 -0 -0 -0 -0 -0 -0 -0 -0 -0 -0 -0 -0 -0 -0 -0 -0 -0 -0
-0 -0 -0 -0 -0 -0 -0 -0 -0 -0 -0 -0 -0 -0 -0 -0 -0 -0 -0 -0 -0 -0 -0 -0 -0 -0 -0 -0 -0 -0 -0 -0 -0 -0 -0 -0 -0 -0 -0 -0 -0 -0 -0
-0 -0 -0 -0 -0 -0 -0 -0 -0 -0 -0 -0 -0 -0 -0 -0 -0 -0 -0 -0 -0 -0 -0 -0 -0 -0 -0 -0 -0 -0 -0 -0 -0 -0 -0 -0 -0 -0 -0 -0 -0 -0 -0
-0 -0 -0 -0 -0 -0 -0 -0 -0 -0 -0 -0 -0 -0 -0 -0 -0 -0 -0 -0 -0 -0 -0 -0 -0 -0 -0 -0 -0 -0 -0 -0 -0 -0 -0 -0 -0 -0 -0 -0 -0 -0 -0
-0 -0 -0 -0 -0 -0 -0 -0 -0 -0 -0 -0 -0 -0 -0 -0 -0 -0 -0 -0 -0 -0 -0 -0 -0 -0 -0 -0 -0 -0 -0 -0 -0 -0 -0 -0 -0 -0 -0 -0 -0 -0 -0
-0 -0 -0 -0 -0 -0 -0 -0 -0 -0 -0 -0 -0 -0 -0 -0 -0 -0 -0 -0 -0 -0 -0 -0 -0 -0 -0 -0 -0 -0 -0 -0 -0 -0 -0 -0 -0 -0 -0 -0 -0 -0 -0
-0 -0 -0 -0 -0 -0 -0 -0 -0 -0 -0 -0 -0 -0 -0 -0 -0 -0 -0 -0 -0 -0 -0 -0 -0 -0 -0 -0 -0 -0 -0 -0 -0 -0 -0 -0 -0 -0 -0 -0 -0 -0 -0
-0 -0 -0 -0 -0 -0 -0 -0 -0 -0 -0 -0 -0 -0 -0 -0 -0 -0 -0 -0 -0 -0 -0 -0 -0 -0 -0 -0 -0 -0 -0 -0 -0 -0 -0 -0 -0 -0 -0 -0 -0 -0 -0
-0 -0 -0 -0 -0 -0 -0 -0 -0 -0 -0 -0 -0 -0 -0 -0 -0 -0 -0 -0 -0 -0 -0 -0 -0 -0 -0 -0 -0 -0 -0 -0 -0 -0 -0 -0 -0 -0 -0 -0 -0 -0 -0
-0 -0 -0 -0 -0 -0 -0 -0 -0 -0 -0 -0 -0 -0 -0 -0 -0 -0 -0 -0 -0 -0 -0 -0 -0 -0 -0 -0 -0 -0 -0 -0 -0 -0 -0 -0 -0 -0 -0 -0 -0 -0 -0
-0 -0 -0 -0 -0 -0 -0 -0 -0 -0 -0 -0 -0 -0 -0 -0 -0 -0 -0 -0 -0 -0 -0 -0 -0 -0 -0 -0 -0 -0 -0 -0 -0 -0 -0 -0 -0 -0 -0 -0 -0 -0 -0
-0 -0 -0 -0 -0 -0 -0 -0 -0 -0 -0 -0 -0 -0 -0 -0 -0 -0 -0 -0 -0 -0 -0 -0 -0 -0 -0 -0 -0 -0 -0 -0 -0 -0 -0 -0 -0 -0 -0 -0 -0 -0 -0
-0 -0 -0 -0 -0 -0 -0 -0 -0 -0 -0 -0 -0 -0 -0 -0 -0 -0 -0 -0 -0 -0 -0 -0 -0 -0 -0 -0 -0 -0 -0 -0 -0 -0 -0 -0 -0 -0 -0 -0 -0 -0 -0
-0 -0 -0 -0 -0 -0 -0 -0 -0 -0 -0 -0 -0 -0 -0 -0 -0 -0 -0 -0 -0 -0 -0 -0 -0 -0 -0 -0 -0 -0 -0 -0 -0 -0 -0 -0 -0 -0 -0 -0 -0 -0 -0
-0 -0 -0 -0 -0 -0 -0 -0 -0 -0 -0 -0 -0 -0 -0 -0 -0 -0 -0 -0 -0 -0 -0 -0 -0 -0 -0 -0 -0 -0 -0 -0 -0 -0 -0 -0 -0 -0 -0 -0 -0 -0 -0
-0 -0 -0 -0 -0 -0 -0 -0 -0 -0 -0 -0 -0 -0 -0 -0 -0 -0 -0 -0 -0 -0 -0 -0 -0 -0 -0 -0 -0 -0 -0 -0 -0 -0 -0 -0 -0 -0 -0 -0 -0 -0 -0
-0 -0 -0 -0 -0 -0 -0 -0 -0 -0 -0 -0 -0 -0 -0 -0 -0 -0 -0 -0 -0 -0 -0 -0 -0 -0 -0 -0 -0 -0 -0 -0 -0 -0 -0 -0 -0 -0 -0 -0 -0 -0 -0
-0 -0 -0 -0 -0 -0 -0 -0 -0 -0 -0 -0 -0 -0 -0 -0 -0 -0 -0 -0 -0 -0 -0 -0 -0 -0 -0 -0 -0 -0 -0 -0 -0 -0 -0 -0 -0 -0 -0 -0 -0 -0 -0
-0 -0 -0 -0 -0 -0 -0 -0 -0 -0 -0 -0 -0 -0 -0 -0 -0 -0 -0 -0 -0 -0 -0 -0 -0 -0 -0 -0 -0 -0 -0 -0 -0 -0 -0 -0 -0 -0 -0 -0 -0 -0 -0
-0 -0 -0 -0 -0 -0 -0 -0 -0 -0 -0 -0 -0 -0 -0 -0 -0 -0 -0 -0 -0 -0 -0 -0 -0 -0 -0 -0 -0 -0 -0 -0 -0 -0 -0 -0 -0 -0 -0 -0 -0 -0 -0
-0 -0 -0 -0 -0 -0 -0 -0 -0 -0 -0 -0 -0 -0 -0 -0 -0 -0 -0 -0 -0 -0 -0 -0 -0 -0 -0 -0 -0 -0 -0 -0 -0 -0 -0 -0 -0 -0 -0 -0 -0 -0 -0
-0 -0 -0 -0 -0 -0 -0 -0 -0 -0 -0 -0 -0 -0 -0 -0 -0 -0 -0 -0 -0 -0 -0 -0 -0 -0 -0 -0 -0 -0 -0 -0 -0 -0 -0 -0 -0 -0 -0 -0 -0 -0 -1
-0 -0 -0 -0 -0 -0 -0 -0 -0 -0 -0 -0 -0 -0 -0 -0 -0 -0 -0 -0 -0 -0 -0 -0 -0 -0 -0 -0 -0 -0 -0 -0 -0 -0 -0 -0 -0 -0 -0 -0 -1 -0 -0
-0 -0 -0 -0 -0 -0 -0 -0 -0 -0 -0 -0 -0 -0 -0 -0 -0 -0 -0 -0 -0 -0 -0 -0 -0 -0 -0 -0 -0 -0 -0 -0 -0 -0 -0 -0 -0 -0 -0 -0 -0 -0 -0
-0 -0 -0 -0 -0 -0 -0 -0 -0 -0 -0 -0 -0 -0 -0 -0 -0 -0 -0 -0 -0 -0 -0 -0 -0 -0 -0 -0 -0 -0 -0 -0 -0 -0 -0 -0 -0 -0 -0 -0 -0 -0 -0
-0 -0 -0 -0 -0 -0 -0 -0 -0 -0 -0 -0 -0 -0 -0 -0 -0 -0 -0 -0 -0 -0 -0 -0 -0 -0 -0 -0 -0 -0 -0 -0 -0 -0 -0 -0 -0 -0 -0 -0 -0 -0 -0
Wind_Speed
25 23 23 22 21 20 19 17 17 17 16 15 14 13 12 10 8 6 5 4 4 5 6 6 6 7 7 8 10 12 13 14 15 17 17 15 12 7 6 5 4 6 6
26 24 23 23 23 22 21 20 19 18 18 17 16 14 13 11 8 7 5 4 3 4 5 6 6 7 9 9 9 11 14 15 14 18 22 23 22 17 9 8 8 8 8
27 24 22 22 22 22 22 21 21 20 19 19 18 16 14 12 10 8 7 5 3 3 4 5 6 7 8 9 9 10 12 15 17 12 17 23 23 26 18 11 10 9 10
28 23 22 22 22 22 21 20 20 20 19 19 18 16 13 10 8 6 4 3 3 2 2 3 6 8 9 9 9 10 11 13 16 16 12 12 18 24 26 22 17 11 12
29 24 21 21 20 20 20 20 19 19 18 18 17 15 12 10 7 5 5 5 4 3 3 3 4 6 8 9 10 11 12 11 13 15 17 17 16 16 19 24 25 21 19
25 26 14 16 17 17 18 17 18 17 17 16 15 13 11 8 5 4 3 4 5 5 5 5 5 6 8 9 11 12 13 12 13 13 13 16 19 21 19 22 26 26 25
10 15 17 11 12 14 14 15 15 16 15 14 13 11 9 6 3 2 4 6 8 8 8 8 7 7 8 10 12 14 14 13 14 14 15 15 18 19 22 24 27 30 30
5 8 9 9 9 10 11 11 13 13 13 12 11 9 7 5 2 2 4 7 9 11 12 11 10 10 11 11 11 13 14 15 15 15 16 17 19 19 21 23 26 31 32
4 5 5 7 8 9 10 11 10 11 10 9 8 7 5 4 4 5 7 9 11 13 14 14 14 14 13 12 13 14 15 15 16 17 18 18 20 20 21 23 24 28 35
3 3 3 5 6 7 8 8 8 8 7 6 6 5 4 4 5 7 9 12 14 15 15 16 16 16 16 15 15 15 15 16 17 18 19 19 21 21 22 23 24 25 30
5 4 3 4 4 4 6 6 6 5 4 4 4 3 4 5 6 8 12 15 17 17 17 17 17 18 18 17 16 16 16 17 18 19 20 20 21 22 24 25 26 28 29
5 4 4 3 3 3 3 4 4 4 3 3 2 3 3 5 7 10 14 17 19 19 19 19 19 20 20 19 18 18 18 19 20 20 20 22 22 24 25 27 27 28 29
6 5 5 5 4 4 4 4 4 4 3 3 2 1 2 5 8 12 16 20 22 23 22 21 21 21 21 21 20 20 20 20 20 21 24 24 24 26 28 28 29 29 30
8 7 6 6 6 6 6 5 5 5 4 3 2 1 1 4 8 14 18 22 24 25 24 24 23 23 23 22 22 23 23 23 22 23 23 24 25 27 29 29 30 30 31
11 11 10 8 8 7 7 6 6 6 5 5 4 3 3 6 10 14 19 23 25 26 26 26 25 25 25 25 25 25 25 26 26 25 25 26 26 27 28 30 31 31 32
14 14 13 12 10 10 9 8 8 8 8 7 7 5 5 7 11 15 19 23 26 27 27 27 27 28 27 26 26 26 28 28 30 30 29 29 30 30 29 29 28 28 30
19 18 17 16 14 13 12 11 11 9 9 9 8 7 7 9 11 15 19 23 26 27 28 29 29 30 29 29 29 29 29 31 32 31 31 31 31 31 31 30 29 28 26
22 20 20 19 18 17 15 13 12 12 12 11 11 10 9 10 13 16 20 23 26 28 29 30 30 30 31 31 30 30 31 32 32 31 31 31 32 31 31 31 31 30 26
24 22 22 21 20 20 18 16 16 15 15 15 14 12 11 12 14 17 21 23 26 29 30 30 31 31 32 31 32 31 33 34 34 33 32 33 33 32 31 33 33 30 26
28 27 22 21 21 21 19 20 19 18 18 17 16 14 13 14 15 18 21 24 27 29 30 31 30 30 31 31 30 32 34 35 35 34 34 33 33 32 32 32 33 32 28
26 24 24 25 23 20 19 21 21 21 19 17 15 15 14 14 16 19 21 25 28 29 31 31 31 31 30 30 29 31 33 34 35 35 34 33 34 33 32 32 31 28 26
28 25 24 22 21 19 19 21 22 20 18 16 16 15 15 15 17 20 23 26 28 30 32 32 33 31 30 28 28 30 31 31 33 35 33 33 35 34 33 32 29 27 26
28 26 26 23 19 18 18 20 19 17 16 15 15 14 14 15 17 20 24 28 29 30 32 32 33 34 31 30 29 28 30 32 32 33 35 36 35 33 30 28 28 25 26
28 26 24 22 21 18 18 18 16 14 14 14 13 13 14 17 19 21 24 28 29 31 32 33 34 33 32 31 28 29 31 32 33 35 36 35 32 30 29 28 26 25 25
28 26 24 22 19 17 16 15 12 11 12 12 13 15 16 19 22 25 26 28 28 29 32 32 33 33 32 29 28 30 31 32 33 35 35 34 31 31 29 27 25 24 25
27 25 23 22 20 18 16 13 12 12 13 15 16 17 19 21 24 27 28 27 28 28 29 30 29 28 28 27 28 29 30 31 32 33 35 34 32 30 29 28 26 24 27
Wind_Direction
179 168 167 164 163 158 157 149 147 148 146 147 145 147 149 137 129 125 115 89 70 51 38 29 23 21 14 10 8 4 1 358 359 355 353 351 340 329 321 331 340 332 328
176 165 158 161 165 164 163 162 156 153 153 152 152 150 150 152 145 136 122 108 79 44 25 15 8 6 2 358 356 355 353 353 356 356 355 357 358 4 359 355 345 340 336
171 159 152 159 161 163 161 162 163 159 158 159 156 159 157 154 126 115 100 96 81 47 15 1 359 355 353 346 347 345 343 343 351 352 352 353 353 352 354 347 339 341 338
177 158 156 158 159 163 157 155 157 157 156 153 154 153 148 147 142 141 122 97 94 64 17 346 340 338 341 335 333 338 336 341 336 344 334 330 341 345 345 352 348 334 328
183 164 158 156 156 154 155 152 152 154 153 152 153 152 156 153 137 108 81 66 59 46 17 348 333 328 328 325 330 332 333 331 331 332 337 335 327 325 326 331 337 340 336
166 173 139 145 145 145 147 144 149 152 151 151 153 156 155 145 134 102 64 42 30 18 6 354 341 332 327 324 324 325 325 323 323 322 322 324 332 334 326 323 326 327 330
135 141 149 138 136 140 141 144 144 150 149 150 153 156 157 142 133 78 33 20 13 10 4 2 353 343 334 329 329 329 322 319 319 315 315 317 317 320 322 321 321 323 327
144 138 136 137 137 139 139 140 149 151 149 149 154 151 145 143 127 56 23 13 11 8 9 6 358 351 347 340 333 326 323 323 317 313 313 317 317 318 317 315 319 320 322
164 151 149 147 145 146 150 151 149 152 149 149 145 141 131 115 84 50 32 19 11 7 4 2 359 358 351 343 340 332 325 323 320 317 317 314 315 315 314 314 316 316 320
206 205 176 159 156 154 151 152 154 154 149 143 137 124 112 93 69 42 27 16 11 9 6 4 1 357 354 350 344 334 331 326 323 322 318 316 317 315 314 313 313 312 312
202 200 197 184 173 163 160 159 158 155 150 139 122 98 85 69 48 31 20 13 10 8 5 3 1 359 357 354 347 340 335 329 327 324 320 317 317 316 316 315 314 313 312
223 215 213 208 203 200 183 180 177 174 164 145 117 103 63 41 26 17 11 8 6 5 3 2 360 358 356 354 350 344 341 336 331 326 321 319 321 317 317 316 313 312 312
233 237 230 220 210 211 204 196 192 192 181 164 146 96 44 19 10 7 4 2 0 360 360 359 356 355 354 353 351 347 343 337 332 329 326 324 323 321 320 318 317 316 316
228 234 225 226 218 210 206 205 202 196 190 187 191 202 331 352 355 357 357 356 356 356 356 356 354 353 352 350 349 347 344 340 336 332 329 326 324 322 322 321 319 319 318
246 241 234 230 222 220 221 216 214 210 207 208 213 228 297 334 342 346 350 351 352 353 353 353 352 351 350 349 348 347 344 342 339 335 332 329 327 325 323 324 324 324 323
253 250 245 237 237 232 229 226 222 219 214 222 228 246 290 317 329 338 343 346 348 349 349 349 349 347 347 347 347 345 344 342 339 338 337 336 334 331 329 327 325 323 323
264 252 241 235 243 242 240 232 231 232 229 234 240 256 277 303 320 331 337 341 344 345 346 346 346 345 346 346 346 346 345 344 342 340 339 338 338 336 335 333 332 329 328
265 259 256 250 249 251 247 244 245 240 240 243 247 258 273 294 313 324 331 337 340 341 342 343 343 344 345 345 346 347 346 345 344 343 341 339 339 339 339 339 337 336 335
278 266 260 254 254 249 250 247 250 250 249 249 252 257 267 288 306 317 326 332 336 338 339 341 341 342 343 345 345 347 345 345 346 346 345 344 343 343 344 343 342 341 340
280 281 273 265 259 254 255 251 252 252 251 253 251 257 268 284 300 314 323 329 333 335 337 338 340 340 341 345 346 347 346 345 347 348 348 348 348 348 348 346 345 344 344
298 285 281 275 267 263 258 253 255 253 259 262 259 261 270 284 302 314 322 327 330 333 334 335 337 338 340 343 346 347 346 346 348 348 349 350 350 348 346 345 344 343 345
297 297 292 283 277 268 257 257 256 265 266 264 261 264 276 289 303 313 321 325 329 330 331 333 335 338 341 343 345 345 347 349 349 349 348 347 346 346 346 346 347 347 347
299 298 293 289 284 276 267 265 266 266 265 264 264 269 280 292 305 313 319 323 326 327 329 331 333 335 338 340 341 345 347 348 347 348 348 346 343 344 347 350 351 356 351
299 299 297 291 287 283 279 275 271 266 263 266 269 275 285 298 307 314 319 322 324 325 327 329 330 333 335 338 342 343 344 346 346 346 345 346 347 351 353 354 357 358 355
296 296 295 292 289 288 285 281 269 261 265 270 276 284 294 302 309 314 318 320 323 325 326 327 329 330 332 336 341 342 343 344 345 345 347 348 350 350 352 355 356 355 353
293 293 293 291 289 286 284 278 272 270 270 277 284 291 298 304 310 314 317 321 322 325 327 328 329 331 335 338 339 341 342 343 344 345 346 348 349 350 351 352 354 356 352